Regional Weather Roundup
Issued by NWS

Home | Current Version | Previous Version | Text Only | Print | Product List | Glossary Off
Versions: 1 2 3 4 5 6 7 8 9 10 11 12 13 14 15 16 17 18 19 20 21 22 23 24 25 26 27 28 29 30 31 32 33 34 35 36 37 38 39 40 41 42 43 44 45 46 47 48 49 50

000
ASUS43 KLOT 201600
RWRIL

ILLINOIS REGIONAL WEATHER ROUNDUP
NATIONAL WEATHER SERVICE CHICAGO/ROMEOVILLE IL
1100 AM CDT WED AUG 20 2014

NOTE: "FAIR" INDICATES FEW OR NO CLOUDS BELOW 12,000 FEET WITH NO
SIGNIFICANT WEATHER AND/OR OBSTRUCTIONS TO VISIBILITY.

* THESE STATIONS ARE NOT UNDER NWS QUALITY CONTROL. THEY ALSO MAY NOT
  REPORT WEATHER SUCH AS PRECIPITATION OR FOG.

ILZ001-002-007-009-015-016-024-201700-
NORTHWEST ILLINOIS

CITY           SKY/WX    TMP DP  RH WIND       PRES   REMARKS
MOLINE         CLOUDY    74  67  78 CALM      29.92R
STERLING*      CLOUDY    81  68  65 W9        29.92S HX  83
$$

ILZ003-004-008-010-011-017-018-201700-
NORTH CENTRAL ILLINOIS

CITY           SKY/WX    TMP DP  RH WIND       PRES   REMARKS
ROCKFORD       PTSUNNY   80  67  64 W8        29.91R HX  82
FREEPORT*      PTSUNNY   78  71  78 W9        29.93R HX  80
ROCHELLE*      PTSUNNY   79  68  69 SW12      29.93R HX  81
$$

ILZ005-006-012>014-019>023-201700-
NORTHEAST ILLINOIS

CITY           SKY/WX    TMP DP  RH WIND       PRES   REMARKS
CHICAGO-OHARE  PTSUNNY   80  63  55 SW8       29.89R HX  81
CHICAGO-MIDWAY PTSUNNY   82  66  58 W9        29.88F HX  84
AURORA         MOSUNNY   81  66  60 SW14      29.92R HX  83
WAUKEGAN       SUNNY     80  63  55 SW7       29.87S HX  81
DUPAGE AIRPORT SUNNY     81  66  60 SW13      29.90R HX  83
WHEELING       SUNNY     81  63  54 W7        29.89S HX  82
NORTHERLY ISL    N/A     80  61  52 W9          N/A  HX  81
$$

LMZ740>746-201700-
SOUTHERN LAKE MICHIGAN

STATION/POSITION SKY/WX   TEMP    WIND        PRES    VSBY  WAVE
                          AIR SEA DIR/SP/G                  HT/PER
                          (F)     (DEG/KT/KT) (MB)    (MI)  (FT/S)
SOUTHERN BUOY              68 67  270/  4/  6 1011.3R         0
WAUKEGAN HARBOR            78     290/  3/  9   N/A
HARRISON CRIB              76     160/  1/  3   N/A
BURNHAM HARBOR             80     280/  6/  8   N/A
CALUMET HARBOR             80     230/  4/  6 1010.7R
BURNS HARBOR               74     260/  1/  2   N/A
MICHIGAN CITY              71     230/  7/  8   N/A
MICHIGAN CITY 6N           72 71  250/  4/  6   N/A           1
ST. JOSEPH                 70 70  230/  6/  8   N/A           1/ 2
$$

ILZ025>027-034>036-040-047-049-050-058-095>099-201700-
WEST-CENTRAL ILLINOIS

CITY           SKY/WX    TMP DP  RH WIND       PRES   REMARKS
QUINCY         CLOUDY    74  72  93 E6        29.96R
MACOMB*        CLOUDY    68  68 100 S5        29.95R
$$

ILZ028>032-037-038-041>044-048-051>054-059>061-201700-
CENTRAL ILLINOIS

CITY           SKY/WX    TMP DP  RH WIND       PRES   REMARKS
DECATUR        CLOUDY    73  70  90 NW5       29.97R
PEORIA         LGT RAIN  73  68  84 E3        29.93F
SPRINGFIELD    TSTM      69  67  93 SW3       30.01F FOG
TAYLORVILLE    NOT AVBL
$$

ILZ033-039-045-046-055>057-062-063-201700-
EAST-CENTRAL ILLINOIS

CITY           SKY/WX    TMP DP  RH WIND       PRES   REMARKS
CHAMPAIGN      CLOUDY    76  70  82 SW7       29.97R
MATTOON        LGT RAIN  75  72  90 W9        29.98R
$$

ILZ079-100>102-201700-
SOUTHWEST ILLINOIS

CITY           SKY/WX    TMP DP  RH WIND       PRES   REMARKS
ALTON          CLOUDY    77  75  94 CALM      29.96R
BELLEVILLE     CLOUDY    79  75  89 E3        29.96R HX  83
CAHOKIA*       PTSUNNY   83  73  72 S3        29.96R HX  89
$$

ILZ064>066-069>071-074>076-080>082-084>086-088>090-092>094-201700-
SOUTH-CENTRAL ILLINOIS

CITY           SKY/WX    TMP DP  RH WIND       PRES   REMARKS
CARBONDALE     CLOUDY    81  73  76 S7        29.96S HX  86
MARION         PTSUNNY   81  73  78 SW7       29.98R HX  85
MT. VERNON     CLOUDY    75  70  83 CALM      29.96S
SALEM*         CLOUDY    76  74  93 CALM      29.96R
$$

ILZ067-068-072-073-078-083-087-091-201700-
SOUTHEAST ILLINOIS

CITY           SKY/WX    TMP DP  RH WIND       PRES   REMARKS
LAWRENCEVILLE  CLOUDY    82  73  74 SW3       29.94F HX  87
HARRISBURG*    CLOUDY    80  77  90 S6        29.97S HX  85
ROBINSON*      CLOUDY    82  75  80 SW5       29.95S HX  88
$$

ABBREVIATIONS USED IN REMARKS
   TC - TEMPERATURE IN CELSIUS
  WCI - WIND CHILL INDEX
   HX - HEAT INDEX
  VSB - VISIBILITY
$$



USA.gov is the U.S. government's official web portal to all federal, state and local government web resources and services.